Change the Weather History Date:

Friday, February 24, 2012

  Actual Average Record
Temperature  
Mean Temperature 46 °F -  
Max Temperature 53 °F 47 °F 60 °F (2008)
Min Temperature 39 °F 29 °F 12 °F (2003)
Degree Days  
Heating Degree Days 19    
Moisture  
Dew Point 40 °F    
Average Humidity 76    
Maximum Humidity 87    
Minimum Humidity 62    
Precipitation  
Precipitation 0.00 in - - ()
Sea Level Pressure  
Sea Level Pressure 30.08 in    
Wind  
Wind Speed 14 mph ()    
Max Wind Speed 29 mph    
Max Gust Speed 32 mph    
Visibility 6.2 miles    
Events      
Averages and records for this station are not official NWS values.
T = Trace of Precipitation, MM = Missing Value Source: Averaged Metar Reports

Daily Weather History Graph

Daily Weather History Graph

Search for Another Location

Airport or City:

Trip Planner

Search our weather history database for the weather conditions in past years. The results will help you decide how hot, cold, wet, or windy it might be!

Date:

Astronomy

Feb. 24, 2012 Rise Set
Actual Time 6:34 AM CET 5:19 PM CET
Civil Twilight 6:02 AM CET 5:50 PM CET
Nautical Twilight 5:27 AM CET 6:26 PM CET
Astronomical Twilight 4:51 AM CET 7:01 PM CET
Moon 7:05 AM CET (2/24) 8:22 PM CET (2/24)
Length of Visible Light 11h 47m
Length of Day
10h 45m
Waxing Crescent, 6% of the Moon is Illuminated
Feb 24
Waxing Crescent
Mar 1
First Quarter
Mar 8
Full
Mar 15
Last Quarter
Mar 22
New

Hourly Weather History & Observations

Time (CET) Temp. Windchill Dew Point Humidity Pressure Visibility Wind Dir Wind Speed Gust Speed Precip Events Conditions
12:00 AM 41.0 °F 32.8 °F 35.6 °F 81% 30.12 in - WNW 16.1 mph - N/A   Clear
12:30 AM 39.2 °F 30.5 °F 35.6 °F 87% 30.12 in - WNW 16.1 mph - N/A   Clear
1:00 AM 41.0 °F 32.8 °F 35.6 °F 81% 30.12 in - WNW 16.1 mph - N/A   Clear
1:30 AM 39.2 °F 30.8 °F 35.6 °F 87% 30.15 in - WNW 15.0 mph - N/A   Clear
2:00 AM 39.2 °F 32.0 °F 33.8 °F 81% 30.15 in - WNW 11.5 mph - N/A   Clear
2:30 AM 39.2 °F 31.2 °F 35.6 °F 87% 30.12 in - WNW 13.8 mph - N/A   Clear
3:00 AM 39.2 °F 32.0 °F 35.6 °F 87% 30.12 in - WNW 11.5 mph - N/A   Clear
3:30 AM 39.2 °F 32.0 °F 35.6 °F 87% 30.12 in - WNW 11.5 mph - N/A   Clear
4:00 AM 39.2 °F 31.6 °F 33.8 °F 81% 30.12 in 6.2 mi WNW 12.7 mph - N/A   Scattered Clouds
4:30 AM 39.2 °F 30.8 °F 35.6 °F 87% 30.12 in 6.2 mi WNW 15.0 mph - N/A   Scattered Clouds
5:00 AM 39.2 °F 29.6 °F 35.6 °F 87% 30.12 in 6.2 mi WNW 19.6 mph - N/A   Scattered Clouds
5:30 AM 41.0 °F 32.2 °F 35.6 °F 81% 30.12 in 6.2 mi WNW 18.4 mph - N/A   Scattered Clouds
6:00 AM 41.0 °F 33.1 °F 37.4 °F 87% 30.12 in 6.2 mi WNW 15.0 mph - N/A   Scattered Clouds
6:30 AM 41.0 °F 33.1 °F 37.4 °F 87% 30.09 in 6.2 mi WNW 15.0 mph - N/A   Mostly Cloudy
7:00 AM 41.0 °F 36.4 °F 37.4 °F 87% 30.12 in 6.2 mi West 6.9 mph - N/A   Mostly Cloudy
7:30 AM 42.8 °F 35.4 °F 37.4 °F 81% 30.12 in 6.2 mi WNW 15.0 mph - N/A   Mostly Cloudy
8:00 AM 44.6 °F 37.2 °F 39.2 °F 81% 30.12 in 6.2 mi WNW 17.3 mph - N/A   Mostly Cloudy
8:30 AM 44.6 °F 37.4 °F 39.2 °F 81% 30.12 in 6.2 mi WNW 16.1 mph - N/A   Mostly Cloudy
9:00 AM 46.4 °F 40.4 °F 39.2 °F 76% 30.12 in 6.2 mi WNW 13.8 mph - N/A   Mostly Cloudy
9:30 AM 48.2 °F - 41.0 °F 76% 30.12 in 6.2 mi WNW 19.6 mph - N/A   Scattered Clouds
10:00 AM 48.2 °F - 41.0 °F 76% 30.12 in 6.2 mi WNW 19.6 mph - N/A   Mostly Cloudy
10:30 AM 48.2 °F - 41.0 °F 76% 30.12 in 6.2 mi WNW 20.7 mph - N/A   Mostly Cloudy
11:00 AM 51.8 °F - 41.0 °F 67% 30.09 in 6.2 mi WNW 19.6 mph - N/A   Mostly Cloudy
11:30 AM 50.0 °F - 41.0 °F 71% 30.09 in 6.2 mi WNW 16.1 mph - N/A   Mostly Cloudy
12:00 PM 53.6 °F - 42.8 °F 67% 30.09 in 6.2 mi WNW 20.7 mph 32.2 mph N/A   Scattered Clouds
12:30 PM 51.8 °F - 41.0 °F 67% 30.09 in 6.2 mi WNW 23.0 mph - N/A   Scattered Clouds
1:00 PM 53.6 °F - 41.0 °F 62% 30.06 in 6.2 mi WNW 24.2 mph - N/A   Scattered Clouds
1:30 PM 53.6 °F - 42.8 °F 67% 30.06 in 6.2 mi WNW 28.8 mph - N/A   Scattered Clouds
2:00 PM 53.6 °F - 42.8 °F 67% 30.04 in 6.2 mi WNW 18.4 mph - N/A   Scattered Clouds
2:30 PM 53.6 °F - 42.8 °F 67% 30.04 in 6.2 mi NW 17.3 mph - N/A   Mostly Cloudy
3:00 PM 53.6 °F - 42.8 °F 67% 30.04 in 6.2 mi WNW 19.6 mph - N/A   Mostly Cloudy
4:00 PM 51.8 °F - 42.8 °F 71% 30.04 in 6.2 mi WNW 13.8 mph - N/A   Mostly Cloudy
4:30 PM 51.8 °F - 42.8 °F 71% 30.04 in 6.2 mi WNW 12.7 mph - N/A   Mostly Cloudy
5:00 PM 51.8 °F - 42.8 °F 71% 30.04 in 6.2 mi WNW 12.7 mph - N/A   Mostly Cloudy
5:30 PM 51.8 °F - 42.8 °F 71% 30.04 in 6.2 mi WNW 13.8 mph - N/A   Mostly Cloudy
6:00 PM 51.8 °F - 42.8 °F 71% 30.04 in 6.2 mi West 15.0 mph - N/A   Mostly Cloudy
6:30 PM 51.8 °F - 42.8 °F 71% 30.06 in 6.2 mi West 10.4 mph - N/A   Mostly Cloudy
7:00 PM 50.0 °F - 42.8 °F 76% 30.04 in 6.2 mi West 6.9 mph - N/A   Overcast
7:30 PM 48.2 °F - 41.0 °F 76% 30.04 in 6.2 mi WNW 5.8 mph - N/A   Mostly Cloudy
8:00 PM 50.0 °F - 42.8 °F 76% 30.04 in 6.2 mi WNW 13.8 mph - N/A   Mostly Cloudy
8:30 PM 51.8 °F - 42.8 °F 71% 30.04 in 6.2 mi West 12.7 mph - N/A   Mostly Cloudy
9:00 PM 48.2 °F - 41.0 °F 76% 30.04 in 6.2 mi West 10.4 mph - N/A   Mostly Cloudy
9:30 PM 50.0 °F - 41.0 °F 71% 30.04 in 6.2 mi WNW 19.6 mph - N/A   Mostly Cloudy
10:00 PM 50.0 °F - 41.0 °F 71% 30.04 in 6.2 mi WNW 19.6 mph - N/A   Mostly Cloudy
10:30 PM 50.0 °F - 41.0 °F 71% 30.04 in 6.2 mi WNW 19.6 mph - N/A   Mostly Cloudy
11:00 PM 50.0 °F - 41.0 °F 71% 30.01 in 6.2 mi WNW 18.4 mph - N/A   Mostly Cloudy
11:30 PM 48.2 °F - 41.0 °F 76% 30.01 in 6.2 mi West 16.1 mph - N/A   Mostly Cloudy